Location: Mentone
(34.5413°N, 85.5351°W)
Time: 12:08:44
(UTC-05:00)

Uosat F - Visible Passes

Search period start: 28 August 2015 00:00
Search period end: 07 September 2015 00:00
Orbit: 750 x 762 km, 98.7° (Epoch: 26 August)

Date Brightness Start Highest point End Pass type
(mag) Time Alt. Az. Time Alt. Az. Time Alt. Az.
29 Aug 12.8 05:17:55 10° NNE 05:22:28 35° E 05:27:02 10° SSE visible
30 Aug 14.0 04:40:29 10° ENE 04:42:44 13° E 04:45:16 10° ESE visible
31 Aug 11.9 05:37:42 10° NNE 05:42:37 56° E 05:47:33 10° S visible
01 Sep 13.6 04:59:17 10° NE 05:03:03 22° E 05:06:57 10° SE visible
03 Sep 12.8 05:18:45 10° NNE 05:23:17 35° E 05:27:52 10° SSE visible
04 Sep 14.0 04:41:18 10° ENE 04:43:33 13° E 04:46:07 10° ESE visible
05 Sep 11.9 05:38:31 10° NNE 05:43:27 57° E 05:48:23 10° S visible
06 Sep 13.6 05:00:06 10° NE 05:03:53 22° E 05:07:48 10° SE visible
